TimeEDT,TemperatureF,Dew PointF,Humidity,Sea Level PressureIn,VisibilityMPH,Wind Direction,Wind SpeedMPH,Gust SpeedMPH,PrecipitationIn,Events,Conditions,WindDirDegrees,DateUTC
12:53 AM,79.0,73.9,84,29.97,10.0,Calm,Calm,-,N/A,,Overcast,0,2013-10-22 04:53:00
1:53 AM,80.1,73.9,81,29.96,10.0,SSE,5.8,-,N/A,,Overcast,160,2013-10-22 05:53:00
2:53 AM,80.1,73.0,79,29.94,10.0,SSE,5.8,-,N/A,,Overcast,160,2013-10-22 06:53:00
3:53 AM,79.0,73.0,82,29.93,10.0,SSW,3.5,-,N/A,,Overcast,200,2013-10-22 07:53:00
4:53 AM,78.1,73.9,87,29.93,10.0,Calm,Calm,-,N/A,,Overcast,0,2013-10-22 08:53:00
5:53 AM,77.0,73.9,90,29.93,10.0,SSE,3.5,-,N/A,,Overcast,160,2013-10-22 09:53:00
6:53 AM,77.0,73.0,88,29.93,10.0,South,4.6,-,N/A,,Scattered Clouds,170,2013-10-22 10:53:00
7:53 AM,77.0,73.9,90,29.94,10.0,South,4.6,-,N/A,,Clear,170,2013-10-22 11:53:00
8:53 AM,80.1,73.9,81,29.95,10.0,SSW,5.8,-,N/A,,Scattered Clouds,200,2013-10-22 12:53:00
9:53 AM,82.9,73.9,74,29.95,10.0,SSW,9.2,-,N/A,,Clear,210,2013-10-22 13:53:00
10:53 AM,84.0,73.0,69,29.94,10.0,SSW,10.4,-,N/A,,Scattered Clouds,210,2013-10-22 14:53:00
11:53 AM,88.0,72.0,59,29.92,10.0,SW,9.2,-,N/A,,Scattered Clouds,220,2013-10-22 15:53:00
12:53 PM,90.0,70.0,52,29.90,-9999.0,SSW,12.7,18.4,N/A,,Scattered Clouds,210,2013-10-22 16:53:00
1:53 PM,-9999,-9999,N/A,29.88,-9999.0,WSW,11.5,-,N/A,,Scattered Clouds,240,2013-10-22 17:53:00
2:53 PM,91.0,66.9,45,29.86,-9999.0,North,-9999.0,-,N/A,,Scattered Clouds,0,2013-10-22 18:53:00
3:53 PM,91.0,66.9,45,29.85,10.0,WSW,12.7,20.7,N/A,,Partly Cloudy,240,2013-10-22 19:53:00
4:53 PM,88.0,66.9,49,29.84,10.0,SW,6.9,-,N/A,,Partly Cloudy,230,2013-10-22 20:53:00
5:53 PM,88.0,68.0,51,29.83,10.0,SW,8.1,-,N/A,,Partly Cloudy,220,2013-10-22 21:53:00
6:53 PM,84.0,69.1,61,29.83,10.0,Calm,Calm,-,N/A,,Scattered Clouds,0,2013-10-22 22:53:00
7:53 PM,82.0,70.0,67,29.83,10.0,SSW,4.6,-,N/A,,Partly Cloudy,210,2013-10-22 23:53:00
8:53 PM,78.1,70.0,76,29.86,10.0,West,4.6,-,N/A,,Mostly Cloudy,270,2013-10-23 00:53:00
9:53 PM,78.1,71.1,79,29.86,10.0,West,6.9,-,N/A,,Scattered Clouds,270,2013-10-23 01:53:00
10:53 PM,78.1,71.1,79,29.87,10.0,West,6.9,-,N/A,,Scattered Clouds,270,2013-10-23 02:53:00
11:53 PM,77.0,72.0,84,29.86,10.0,West,5.8,-,N/A,,Clear,260,2013-10-23 03:53:00